Flag for India Weather past 2 weeks in Mumbai, Maharashtra, India

Now
86 °F

Passing clouds.


Feels Like: 97 °F
Forecast: 83 / 90 °F
Wind: 8 mph from West

Location: Bombay / Santacruz

Current Time: Mar 28, 2015 at 10:31:11 PM

Latest Report: Mar 28, 2015 at 9:40 PM


Visibility: 2 mi

Pressure: 29.86 "Hg

Humidity: 75%

Dew point: 77 °F

Location of MumbaiLocation

Historic Weather in Mumbai — Graph

°F

Mumbai temperature yesterday

Maximum temperature yesterday: 91 °F (at 10:40 AM)
Minimum temperature yesterday: 82 °F (at 3:40 AM)
Average temperature yesterday: 85 °F

Past Weeks' High & Low Weather Summary

 TemperatureHumidityPressure
High104 °F (Mar 25, 1:40 PM)94% (Mar 22, 2:40 AM)30.04 "Hg (Mar 22, 2:40 AM)
Low73 °F (Mar 17, 2:40 AM)23% (Mar 18, 12:40 PM)29.71 "Hg (Mar 25, 3:40 PM)
Average85 °F61%29.87 "Hg
* Reported Mar 13 8:40 PM — Mar 28 8:40 PM, Mumbai, Weather by CustomWeather, © 2015

Note: Actual official high and low records may vary slightly from our data, if they occured in-between our weather recording intervals... More about our weather records

Advertising

Mumbai weather history for previous 24 hours

 ConditionsComfort  
Time TempWeatherWind HumidityBarometerVisibility
8:40 PM
Sat, Mar 28
86 °FPassing clouds.8 mph75%29.86 "Hg1 mi
7:40 PM86 °FPassing clouds.9 mph75%29.83 "Hg2 mi
5:40 PM86 °FHaze.13 mph70%29.77 "Hg2 mi
4:40 PM88 °FHaze.13 mph70%29.74 "Hg2 mi
3:40 PM90 °FScattered clouds.15 mph71%29.77 "Hg2 mi
2:40 PM90 °FScattered clouds.14 mph67%29.80 "Hg2 mi
1:40 PM90 °FHaze.12 mph67%29.83 "Hg2 mi
12:40 PM90 °FScattered clouds.9 mph71%29.86 "Hg2 mi
11:40 AM90 °FScattered clouds.7 mph71%29.89 "Hg2 mi
9:40 AM86 °FPartly sunny.3 mph79%29.92 "Hg2 mi
8:40 AM84 °FPartly sunny.3 mph84%29.92 "Hg1 mi
7:40 AM84 °FPartly sunny.2 mph79%29.89 "Hg1 mi
6:40 AM82 °FPassing clouds.3 mph84%29.89 "Hg2 mi
5:40 AM82 °FPassing clouds.5 mph84%29.86 "Hg2 mi
4:40 AM82 °FPassing clouds.3 mph84%29.83 "Hg2 mi
3:40 AM84 °FPassing clouds.3 mph84%29.86 "Hg2 mi
2:40 AM82 °FPassing clouds.6 mph89%29.86 "Hg2 mi
1:40 AM82 °FPartly cloudy.8 mph94%29.86 "Hg2 mi
12:40 AM84 °FPassing clouds.7 mph89%29.89 "Hg2 mi
10:40 PM
Fri, Mar 27
84 °FPassing clouds.8 mph84%29.89 "Hg2 mi
Weather by CustomWeather, © 2015

See weather overviewHow to use our weather pages